Regional Weather Roundup
Issued by NWS

Home | Current Version | Previous Version | Text Only | Print | Product List | Glossary On
Versions: 1 2 3 4 5 6 7 8 9 10 11 12 13 14 15 16 17 18 19 20 21 22 23 24 25 26 27 28 29 30 31 32 33 34 35 36 37 38 39 40 41 42 43 44 45 46 47 48 49 50
000
ASUS43 KOAX 130010
RWRNE

WEATHER ROUNDUP FOR NEBRASKA
NATIONAL WEATHER SERVICE OMAHA NE
600 PM CST TUE DEC 12 2017

NOTES: SATELLITE DATA IS BEING USED TO AUGMENT CLOUD COVER ABOVE
       12000 FEET.
       "FAIR" INDICATES FEW OR NO CLOUDS BELOW 12,000 FEET WITH NO
       SIGNIFICANT WEATHER AND/OR OBSTRUCTIONS TO VISIBILITY.


NEZ001>004-019>022-054>056-130100-
NEBRASKA PANHANDLE

CITY           SKY/WX    TMP DP  RH WIND       PRES   REMARKS
SCOTTSBLUFF    CLEAR     52  15  23 W10       30.05F
6HR MIN TEMP:  50; 6HR MAX TEMP:  65;

ALLIANCE       CLEAR     42  18  37 W9        30.00F
6HR MIN TEMP:  42; 6HR MAX TEMP:  65;

CHADRON        CLEAR     49  19  30 SW7       29.97F
6HR MIN TEMP:  49; 6HR MAX TEMP:  66;

GORDON         FAIR      47  21  35 W7        29.95F
6HR MIN TEMP:  47; 6HR MAX TEMP:  57;

KIMBALL        CLEAR     48  10  22 W6        30.11S
SIDNEY         CLEAR     50  13  22 W12       30.07F
6HR MIN TEMP:  49; 6HR MAX TEMP:  66;

$$

NEZ057>060-069>072-079>082-130100-
SOUTHWEST NEBRASKA

CITY           SKY/WX    TMP DP  RH WIND       PRES   REMARKS
NORTH PLATTE   CLEAR     42  20  41 CALM      29.99F
6HR MIN TEMP:  42; 6HR MAX TEMP:  59;

IMPERIAL       CLEAR     52  18  26 W7        30.03F
6HR MIN TEMP:  51; 6HR MAX TEMP:  64;

LEXINGTON      CLEAR     42  20  40 S7        29.99F
MCCOOK         CLEAR     53  20  27 SW7       30.01F
6HR MIN TEMP:  43; 6HR MAX TEMP:  59;

OGALLALA       CLEAR     47  16  29 NW5       30.02S
$$

NEZ005>010-023>029-035>040-094-130100-
NORTH CENTRAL NEBRASKA

CITY           SKY/WX    TMP DP  RH WIND       PRES   REMARKS
VALENTINE      CLEAR     45  20  36 W7        29.91F
6HR MIN TEMP:  43; 6HR MAX TEMP:  61;

AINSWORTH      CLEAR     44  22  42 W9        29.91F
BROKEN BOW     CLEAR     40  20  44 CALM      29.96F
6HR MIN TEMP:  39; 6HR MAX TEMP:  54;

O`NEILL        CLEAR     43  22  43 SW9       29.90F
ORD            CLEAR     41  17  38 SW9       29.94F
6HR MIN TEMP:  41; 6HR MAX TEMP:  52;

THEDFORD       CLEAR     51  21  30 W6        29.96F
$$

NEZ041-046>049-061>064-073>077-083>087-130100-
SOUTH CENTRAL NEBRASKA

CITY           SKY/WX    TMP DP  RH WIND       PRES   REMARKS
GRAND ISLAND   CLEAR     44  17  33 S7        30.00F
6HR MIN TEMP:  42; 6HR MAX TEMP:  52;

AURORA         CLEAR     42  16  35 SW7       29.99F
HASTINGS       CLEAR     43  18  36 SW6       30.01F
6HR MIN TEMP:  43; 6HR MAX TEMP:  51;

HEBRON         CLEAR     42  24  49 SW8       30.03F
HOLDREGE       CLEAR     41  22  47 SW6       30.00F
KEARNEY        CLEAR     41  21  44 SW8       30.00F
YORK           CLEAR     39  19  45 SW8       30.00F WCI  34
$$

NEZ011>018-030>034-042>045-130100-
NORTHEAST NEBRASKA

CITY           SKY/WX    TMP DP  RH WIND       PRES   REMARKS
NORFOLK        CLEAR     39  23  52 SW10      29.91F WCI  32
6HR MIN TEMP:  39; 6HR MAX TEMP:  48;

ALBION         CLEAR     41  20  43 S5        29.95F
BLAIR          CLEAR     34  27  74 S7        29.97F WCI  28
COLUMBUS       CLEAR     42  25  50 SW9       29.97F
FREMONT        CLEAR     38  26  62 S5        29.98F WCI  34
TEKAMAH        CLEAR     33  23  66 S12       29.96F WCI  24
6HR MIN TEMP:  33; 6HR MAX TEMP:  44;

WAYNE          CLEAR     34  23  63 SW9       29.91F WCI  27
$$

NEZ050>053-065>068-078-088>093-130100-
SOUTHEAST NEBRASKA

CITY           SKY/WX    TMP DP  RH WIND       PRES   REMARKS
LINCOLN        CLEAR     38  24  57 S5        30.02F WCI  34
6HR MIN TEMP:  38; 6HR MAX TEMP:  48;

OMAHA EPPLEY   CLEAR     37  25  61 S10       30.00F WCI  30
6HR MIN TEMP:  31; 6HR MAX TEMP:  41;

BEATRICE       CLEAR     39  25  58 S7        30.04F WCI  34
FALLS CITY     CLEAR     37  25  61 S8        30.06F WCI  31
6HR MIN TEMP:  34; 6HR MAX TEMP:  42;

NEBRASKA CITY  CLEAR     33  27  78 S7        30.02F WCI  27
PLATTSMOUTH    CLEAR     36  28  72 S10       30.01F WCI  28
$$

NEZ044-045-051>053-067-130100-
OMAHA AREA

CITY           SKY/WX    TMP DP  RH WIND       PRES   REMARKS
OMAHA EPPLEY   CLEAR     37  25  61 S10       30.00F WCI  30
6HR MIN TEMP:  31; 6HR MAX TEMP:  41;

BLAIR          CLEAR     34  27  74 S7        29.97F WCI  28
FREMONT        CLEAR     38  26  62 S5        29.98F WCI  34
MILLARD        CLEAR     41  29  63 S3        30.00F
OFFUTT AFB     CLEAR     33  25  72 S3        30.00F
PLATTSMOUTH    CLEAR     36  28  72 S10       30.01F WCI  28
WAHOO          FAIR      38  24  58 S6        29.98F WCI  33
$$



USA.gov is the U.S. government's official web portal to all federal, state and local government web resources and services.